Weather History for Danville, KY

Change the Weather History Date:

Sunday, April 7, 2013

  Actual Average (KLEX) Record (KLEX)
Temperature  
Mean Temperature 62 °F 53 °F  
Max Temperature 73 °F 63 °F 84 °F (2001)
Min Temperature 51 °F 42 °F 18 °F (1982)
Degree Days  
Heating Degree Days 3 13  
Month to date heating degree days 96  
Since 1 July heating degree days 4272  
Cooling Degree Days 0 0  
Month to date cooling degree days 0  
Year to date cooling degree days 2  
Growing Degree Days 12 (Base 50)    
Moisture  
Dew Point 40 °F    
Average Humidity 46    
Maximum Humidity 55    
Minimum Humidity 27    
Precipitation  
Precipitation 0.00 in 0.11 in 1.84 in (1935)
Month to date precipitation 0.78  
Year to date precipitation 11.25  
Snow  
Snow 0.00 in 0.00 in 0.50 in (1916)
Month to date snowfall 0.1  
Since 1 July snowfall 12.8  
Snow Depth -    
Sea Level Pressure  
Sea Level Pressure 30.02 in    
Wind  
Wind Speed 10 mph (SW)    
Max Wind Speed 18 mph    
Max Gust Speed 30 mph    
Visibility 10 miles    
Events      
T = Trace of Precipitation, MM = Missing Value Source: NWS Daily Summary

Daily Weather History Graph

Daily Weather History Graph

Search for Another Location

Airport:

Trip Planner

Search our weather history database for the weather conditions in past years. The results will help you decide how hot, cold, wet, or windy it might be!

Date:

Astronomy

Apr. 07, 2013 Rise Set
Actual Time 7:15 AM EDT 8:07 PM EDT
Civil Twilight 6:48 AM EDT 8:34 PM EDT
Nautical Twilight 6:17 AM EDT 9:05 PM EDT
Astronomical Twilight 5:44 AM EDT 9:38 PM EDT
Moon 5:29 AM EDT (4/7) 5:41 PM EDT (4/7)
Length of Visible Light 13h 45m
Length of Day
12h 52m
Waning Crescent, 8% of the Moon is Illuminated
Apr 7
Waning Crescent
Apr 10
New
Apr 18
First Quarter
Apr 25
Full
May 2
Last Quarter

Hourly Weather History & Observations

Time (EDT) Temp. Dew Point Humidity Pressure Visibility Wind Dir Wind Speed Gust Speed Precip Events Conditions
12:15 AM 53.6 °F 35.6 °F 51% 30.02 in 10.0 mi SSW 5.8 mph - N/A   Clear
12:35 AM 53.6 °F 35.6 °F 51% 30.02 in 10.0 mi SSW 5.8 mph - N/A   Clear
12:55 AM 53.6 °F 35.6 °F 51% 30.02 in 10.0 mi SSW 5.8 mph - N/A   Clear
1:15 AM 51.8 °F 35.6 °F 54% 30.01 in 10.0 mi SSW 5.8 mph - N/A   Clear
1:35 AM 53.6 °F 37.4 °F 54% 30.00 in 10.0 mi SSW 8.1 mph - N/A   Clear
1:55 AM 53.6 °F 37.4 °F 54% 30.00 in 10.0 mi SSW 8.1 mph - N/A   Clear
2:15 AM 53.6 °F 37.4 °F 54% 29.96 in 10.0 mi South 11.5 mph - N/A   Clear
2:35 AM 55.4 °F 37.4 °F 51% 29.99 in 10.0 mi SW 10.4 mph - N/A   Clear
2:55 AM 55.4 °F 37.4 °F 51% 30.00 in 10.0 mi SW 10.4 mph - N/A   Clear
3:15 AM 55.4 °F 35.6 °F 47% 30.00 in 10.0 mi SW 10.4 mph - N/A   Clear
3:35 AM 55.4 °F 35.6 °F 47% 29.99 in 10.0 mi SW 11.5 mph - N/A   Clear
3:55 AM 55.4 °F 37.4 °F 51% 30.00 in 10.0 mi SW 11.5 mph - N/A   Clear
4:15 AM 55.4 °F 35.6 °F 47% 30.00 in 10.0 mi SW 11.5 mph - N/A   Clear
4:35 AM 53.6 °F 37.4 °F 54% 30.00 in 10.0 mi SW 9.2 mph - N/A   Clear
4:55 AM 53.6 °F 37.4 °F 54% 30.00 in 10.0 mi SSW 8.1 mph - N/A   Clear
5:15 AM 53.6 °F 37.4 °F 54% 30.00 in 10.0 mi SW 8.1 mph - N/A   Clear
5:35 AM 53.6 °F 37.4 °F 54% 30.00 in 10.0 mi SSW 8.1 mph - N/A   Clear
5:55 AM 53.6 °F 37.4 °F 54% 30.00 in 10.0 mi SSW 8.1 mph - N/A   Clear
6:15 AM 53.6 °F 37.4 °F 54% 30.00 in 10.0 mi SSW 9.2 mph - N/A   Clear
6:35 AM 53.6 °F 37.4 °F 54% 30.00 in 10.0 mi SSW 9.2 mph - N/A   Clear
6:55 AM 53.6 °F 37.4 °F 54% 30.00 in 10.0 mi SSW 11.5 mph - N/A   Clear
7:15 AM 53.6 °F 37.4 °F 54% 30.01 in 10.0 mi SW 10.4 mph - N/A   Clear
7:35 AM 53.6 °F 37.4 °F 54% 30.02 in 10.0 mi SW 10.4 mph - N/A   Clear
7:55 AM 55.4 °F 37.4 °F 51% 30.02 in 10.0 mi SW 12.7 mph 18.4 mph N/A   Clear
8:15 AM 55.4 °F 37.4 °F 51% 30.03 in 10.0 mi SW 15.0 mph 20.7 mph N/A   Clear
8:35 AM 57.2 °F 37.4 °F 48% 30.03 in 10.0 mi SW 15.0 mph 20.7 mph N/A   Clear
8:55 AM 59.0 °F 39.2 °F 48% 30.03 in 10.0 mi SW 13.8 mph 24.2 mph N/A   Clear
9:15 AM 60.8 °F 41.0 °F 48% 30.04 in 10.0 mi SW 16.1 mph 21.9 mph N/A   Clear
9:35 AM 60.8 °F 41.0 °F 48% 30.04 in 10.0 mi SW 13.8 mph 20.7 mph N/A   Scattered Clouds
9:55 AM 62.6 °F 42.8 °F 48% 30.04 in 10.0 mi SW 13.8 mph 23.0 mph N/A   Scattered Clouds
10:15 AM 62.6 °F 42.8 °F 48% 30.04 in 10.0 mi SW 13.8 mph 23.0 mph N/A   Mostly Cloudy
10:35 AM 62.6 °F 44.6 °F 52% 30.05 in 10.0 mi SW 18.4 mph 24.2 mph N/A   Overcast
10:55 AM 62.6 °F 44.6 °F 52% 30.05 in 10.0 mi SW 15.0 mph 23.0 mph N/A   Overcast
11:15 AM 62.6 °F 44.6 °F 52% 30.05 in 10.0 mi SW 16.1 mph 20.7 mph N/A   Overcast
11:35 AM 64.4 °F 44.6 °F 49% 30.05 in 10.0 mi SW 15.0 mph 19.6 mph N/A   Overcast
11:55 AM 64.4 °F 44.6 °F 49% 30.06 in 10.0 mi SSW 17.3 mph 23.0 mph N/A   Overcast
12:15 PM 64.4 °F 44.6 °F 49% 30.06 in 10.0 mi SW 18.4 mph 21.9 mph N/A   Overcast
12:35 PM 64.4 °F 44.6 °F 49% 30.05 in 10.0 mi SW 13.8 mph 19.6 mph N/A   Overcast
12:55 PM 66.2 °F 44.6 °F 46% 30.05 in 10.0 mi SW 15.0 mph 21.9 mph N/A   Overcast
1:15 PM 68.0 °F 44.6 °F 43% 30.04 in 10.0 mi SW 15.0 mph 23.0 mph N/A   Overcast
1:35 PM 68.0 °F 44.6 °F 43% 30.04 in 10.0 mi WSW 13.8 mph 21.9 mph N/A   Overcast
1:55 PM 68.0 °F 44.6 °F 43% 30.03 in 10.0 mi WSW 13.8 mph 19.6 mph N/A   Overcast
2:15 PM 68.0 °F 44.6 °F 43% 30.03 in 10.0 mi SW 16.1 mph - N/A   Overcast
2:35 PM 69.8 °F 44.6 °F 40% 30.02 in 10.0 mi SW 9.2 mph 20.7 mph N/A   Overcast
2:55 PM 69.8 °F 42.8 °F 38% 30.02 in 10.0 mi SW 15.0 mph 20.7 mph N/A   Overcast
3:15 PM 71.6 °F 42.8 °F 35% 30.02 in 10.0 mi WSW 15.0 mph 29.9 mph N/A   Overcast
3:35 PM 69.8 °F 42.8 °F 38% 30.02 in 10.0 mi WSW 10.4 mph 16.1 mph N/A   Overcast
3:55 PM 71.6 °F 41.0 °F 33% 30.01 in 10.0 mi WSW 9.2 mph 20.7 mph N/A   Overcast
4:15 PM 71.6 °F 39.2 °F 31% 30.01 in 10.0 mi SW 15.0 mph 23.0 mph N/A   Overcast
4:35 PM 71.6 °F 41.0 °F 33% 30.00 in 10.0 mi WSW 9.2 mph 18.4 mph N/A   Overcast
4:55 PM 73.4 °F 37.4 °F 27% 30.00 in 10.0 mi SW 17.3 mph 20.7 mph N/A   Overcast
5:15 PM 71.6 °F 37.4 °F 29% 30.00 in 10.0 mi SW 17.3 mph 23.0 mph N/A   Scattered Clouds
5:35 PM 71.6 °F 37.4 °F 29% 30.01 in 10.0 mi SW 11.5 mph - N/A   Mostly Cloudy
5:55 PM 71.6 °F 37.4 °F 29% 30.01 in 10.0 mi SW 10.4 mph 16.1 mph N/A   Mostly Cloudy
6:15 PM 71.6 °F 35.6 °F 27% 30.01 in 10.0 mi SW 11.5 mph 18.4 mph N/A   Mostly Cloudy
6:35 PM 71.6 °F 37.4 °F 29% 30.01 in 10.0 mi WSW 15.0 mph 20.7 mph N/A   Mostly Cloudy
6:55 PM 68.0 °F 39.2 °F 35% 30.01 in 10.0 mi SW 10.4 mph 16.1 mph N/A   Overcast
7:15 PM 68.0 °F 41.0 °F 37% 30.01 in 10.0 mi SW 5.8 mph - N/A   Overcast
7:35 PM 68.0 °F 41.0 °F 37% 30.01 in 10.0 mi WSW 6.9 mph - N/A   Overcast
7:55 PM 68.0 °F 41.0 °F 37% 30.01 in 10.0 mi WSW 5.8 mph - N/A   Overcast
8:15 PM 64.4 °F 41.0 °F 42% 30.01 in 10.0 mi SW 8.1 mph - N/A   Overcast
8:35 PM 64.4 °F 41.0 °F 42% 30.01 in 10.0 mi SW 3.5 mph - N/A   Overcast
8:55 PM 62.6 °F 41.0 °F 45% 30.01 in 10.0 mi SSW 3.5 mph - N/A   Overcast
9:15 PM 62.6 °F 41.0 °F 45% 30.01 in 10.0 mi South 3.5 mph - N/A   Overcast
9:35 PM 62.6 °F 41.0 °F 45% 30.01 in 10.0 mi SSW 4.6 mph - N/A   Overcast
9:55 PM 62.6 °F 41.0 °F 45% 30.01 in 10.0 mi SW 4.6 mph - N/A   Overcast
10:15 PM 60.8 °F 41.0 °F 48% 30.02 in 10.0 mi SSW 3.5 mph - N/A   Overcast
10:35 PM 60.8 °F 42.8 °F 52% 30.02 in 10.0 mi SSW 4.6 mph - N/A   Overcast
10:55 PM 59.0 °F 42.8 °F 55% 30.02 in 10.0 mi SSW 5.8 mph - N/A   Overcast
11:15 PM 60.8 °F 42.8 °F 52% 30.03 in 10.0 mi SSW 4.6 mph - N/A   Overcast
11:35 PM 59.0 °F 42.8 °F 55% 30.03 in 10.0 mi SSW 5.8 mph - N/A   Overcast
11:55 PM 59.0 °F 41.0 °F 51% 30.02 in 10.0 mi SSW 4.6 mph - N/A   Overcast